Location: Unspecified
(50.1700°N, 6.8600°E)
Time: 05:54:24
(UTC+00:00)

In-Cosmos 22 Rocket - Pass Details

Date: 24 January 2019
Orbit: 790 x 889 km, 81.2° (Epoch: 17 February)

Event Time Altitude Azimuth Distance (km) Brightness Sun altitude
Rises 06:01:36 0° 348° (NNW) 3,305 7.0 -12.0°
Reaches altitude 10° 06:03:59 10° 349° (N) 2,368 6.3 -11.7°
Maximum altitude 06:09:19 82° 77° (ENE) 807 4.2 -10.8°
Drops below altitude 10° 06:14:39 10° 166° (SSE) 2,363 7.0 -10.0°
Sets 06:17:01 0° 167° (SSE) 3,298 7.7 -9.7°
